• Processing (Info)

  • MPEC 2006-B75 : 2006 BL55

    The following Minor Planet Electronic Circular may be linked-to from your own Web pages, but must not otherwise be redistributed electronically.

    A form allowing access to any MPEC is at the bottom of this page.


    Read MPEC 2006-B74 Read MPEC 2006-B76


    M.P.E.C. 2006-B75                                Issued 2006 Jan. 28, 18:33 UT
    
         The Minor Planet Electronic Circulars contain information on unusual
             minor planets and routine data on comets.  They are published
       on behalf of Commission 20 of the International Astronomical Union by the
              Minor Planet Center, Smithsonian Astrophysical Observatory,
                              Cambridge, MA 02138, U.S.A.
    
                      Supported in part by the Brinson Foundation
                      Supported in part by the TABASGO Foundation
                 Prepared using the Tamkin Foundation Computer Network
    
                                  MPC@CFA.HARVARD.EDU
              URL http://cfa-www.harvard.edu/iau/mpc.html  ISSN 1523-6714
    
                                       2006 BL55
    
    Observations:
         K06B55L* C2006 01 26.48868 12 10 19.12 -01 58 04.5          20.9 V EB075G96
         K06B55L  C2006 01 26.49634 12 10 23.95 -01 58 10.1          20.4 V EB075G96
         K06B55L  C2006 01 26.50410 12 10 28.92 -01 58 16.1          21.9 V EB075G96
         K06B55L  C2006 01 26.51181 12 10 33.78 -01 58 20.4          20.3 V EB075G96
         K06B55L  C2006 01 26.54843 12 10 57.06 -01 58 44.6          20.2 V EB075G96
         K06B55L  C2006 01 26.55026 12 10 58.27 -01 58 46.3                 EB075G96
         K06B55L  C2006 01 26.55211 12 10 59.33 -01 58 46.8          19.4 V EB075G96
         K06B55L  C2006 01 26.55395 12 11 00.44 -01 58 48.9                 EB075G96
         K06B55L  C2006 01 27.43644 12 21 00.47 -02 08 27.5          21.0 V EB075G96
         K06B55L  C2006 01 27.43697 12 21 00.74 -02 08 28.1          21.1 V EB075G96
         K06B55L  C2006 01 27.48293 12 21 30.05 -02 08 57.4          20.3 V EB075G96
         K06B55L  C2006 01 27.48623 12 21 32.17 -02 09 00.1          20.3 V EB075G96
         K06B55L  C2006 01 27.48954 12 21 34.26 -02 09 00.6          21.2 V EB075G96
         K06B55L  C2006 01 27.49282 12 21 36.31 -02 09 01.6          21.3 V EB075G96
         K06B55L  C2006 01 28.40853 12 31 59.43 -02 18 21.8          20.8 R EB075651
         K06B55L  C2006 01 28.40944 12 32 00.17 -02 18 20.3          20.8 R EB075651
         K06B55L  C2006 01 28.41036 12 32 00.77 -02 18 22.0          20.8 R EB075651
         K06B55L  C2006 01 28.41220 12 32 01.74 -02 18 22.1          20.7 R EB075651
         K06B55L  C2006 01 28.49191 12 32 52.65 -02 19 11.3          20.8 V EB075G96
         K06B55L  C2006 01 28.49859 12 32 56.86 -02 19 15.4          22.1 V EB075G96
         K06B55L  C2006 01 28.50523 12 33 01.22 -02 19 18.4          21.0 V EB075G96
         K06B55L  C2006 01 28.51189 12 33 05.43 -02 19 22.7          20.8 V EB075G96
    
    Observer details:
    651 Grasslands Observatory, Tucson.  Observer J. E. McGaha.  0.62-m f/5.1
        Newtonian reflector + CCD.
    G96 Mt. Lemmon Survey.  Observers S. M. Larson, E. J. Christensen.  Measurers
        E. C. Beshore, E. J. Christensen, G. J. Garradd, A. D. Grauer, R. E. Hill,
        R. A. Kowalski, S. M. Larson, R. H. McNaught.  1.5-m reflector + CCD.
    
    Orbital elements:
    2006 BL55                                                Earth MOID = 0.0271 AU
    Epoch 2006 Mar. 6.0 TT = JDT 2453800.5                  MPC
    M   8.41919              (2000.0)            P               Q
    n   0.56686218     Peri.   25.16787     -0.91246347     -0.40600342
    a   1.4459426      Node   130.78160     +0.36315554     -0.86072523
    e   0.3050460      Incl.    3.84007     +0.18848996     -0.30710471
    P   1.74           H   24.4           G   0.15           U   8
    Residuals in seconds of arc
    060126 G96  0.0   0.5+    060127 G96  0.1-  0.2-    060128 651  1.1+  0.1-
    060126 G96  0.3-  0.1+    060127 G96  1.1-  0.5-    060128 651  2.0-  0.9+
    060126 G96  0.5+  0.7-    060127 G96  0.0   0.6-    060128 G96  0.5-  0.0
    060126 G96  0.1+  0.2+    060127 G96  0.3+  1.2-    060128 G96  1.2-  0.2-
    060126 G96  0.1+  0.4+    060127 G96  0.1+  0.4+    060128 G96  0.8+  0.6+
    060126 G96  0.8+  0.0     060127 G96  0.4-  1.5+    060128 G96  0.3+  0.2+
    060126 G96  1.0-  0.7+    060128 651  1.4-  1.0-
    060126 G96  2.0-  0.2-    060128 651  0.9+  1.0+
    
    Ephemeris:
    2006 BL55                a,e,i = 1.45, 0.31, 4                   q = 1.0049
    Date    TT    R. A. (2000) Decl.     Delta      r     Elong.  Phase     V
    2006 01 25    11 53.77   -01 39.5    0.0789   1.032   125.5    50.9    20.8
    2006 01 27    12 16.06   -02 02.7    0.0775   1.028   122.3    54.0    20.9
    2006 01 29    12 38.61   -02 22.9    0.0768   1.024   119.0    57.2    20.9
    2006 01 31    13 01.00   -02 39.8    0.0769   1.021   115.8    60.4    21.0
    2006 02 02    13 22.84   -02 53.2    0.0776   1.018   112.6    63.4    21.1
    2006 02 04    13 43.81   -03 03.2    0.0790   1.015   109.6    66.2    21.3
    2006 02 06    14 03.66   -03 10.1    0.0810   1.013   106.9    68.8    21.4
    2006 02 08    14 22.22   -03 14.3    0.0834   1.010   104.4    71.0    21.5
    2006 02 10    14 39.43   -03 16.4    0.0863   1.009   102.3    73.0    21.7
    2006 02 12    14 55.28   -03 16.6    0.0896   1.007   100.4    74.6    21.8
    2006 02 14    15 09.81   -03 15.3    0.0932   1.006    98.9    75.9    21.9
    2006 02 16    15 23.09   -03 13.0    0.0970   1.005    97.6    76.9    22.0
    2006 02 18    15 35.21   -03 09.9    0.101    1.005    96.6    77.7    22.1
    2006 02 20    15 46.28   -03 06.0    0.105    1.005    95.9    78.2    22.2
    2006 02 22    15 56.38   -03 01.7    0.109    1.005    95.3    78.5    22.3
    2006 02 24    16 05.60   -02 57.0    0.114    1.006    95.0    78.5    22.4
    
    Kyle E. Smalley              (C) Copyright 2006 MPC           M.P.E.C. 2006-B75
    

    Read MPEC 2006-B74 Read MPEC 2006-B76


    MPEC number:

    Enter an MPEC number in one of the following forms:

    • 1997-B01 (the full form)
    • J97B01 (the packed version of the full form)
    • B01 (the abbreviated form)